map of ISO home
ISO - Airport
Location
City:  Kinston, North Carolina, United States
Name:Kinston Regional Jetport at Stallings Field
ICAO:KISO
IATA:ISO
FAA LID:ISO

Details
Type:Airport (Part 139 Class I)
Use:Public/Civil
Latitude:3519'53"N (35.331444)
Longitude:7736'32"W (-77.608832)
Datum:WGS 1984
Elevation:92 ft (28 m)
Variation:9.83W (WMM2015 magnetic declination)
-0.04 annual change
Runways:1
Longest:11500 × 150 ft (3505 × 45.5 m), paved

Time
Time Zone:UTC-5 (DST-4)
Local Time:

Weather
METAR:KISO 182256Z 31010G17KT 10SM BKN120 27/19 A2985
TAF:KISO 182321Z 1900/1924 31008KT P6SM BKN100
FM190300 34005KT P6SM BKN045
FM192200 VRB04KT P6SM FEW040

Related Locations
Nearby:
Farthest:YAUG: 11715 mi / 18854 km
Augusta [Augusta Airport], WA, AU

Find:

   beyond  
but within

Other Information
Maps:
NOTAMs:
Links:
Sources:

  
  • flag of United States
  • flag of North Carolina
  

Airport Diagram

Airport diagram for ISO

Airport diagram PDF

Sectional Chart

Flight Planning
at skyvector.com

Satellite Image

Google Maps Satellite view

 

Copyright © 2004-2018 Karl L. Swartz. All rights reserved.
The Great Circle Mapper name and logo are trademarks of the Great Circle Mapper.
All other trademarks mentioned herein belong to their respective owners.
Please see credits for attibutions and further copyright information.

  Follow gcmap on Facebook Follow gcmap on Twitter Follow gcmap on Google+ GCmap on LinkedIn

hCard Microformat

Geo Microformat